Terminal Aerodrome Forecast
Issued by NWS

Home | Current Version | Previous Version | Text Only | Print | Product List | Glossary Off
Versions: 1 2 3 4 5 6 7 8 9 10 11 12 13 14 15 16 17 18 19 20

000
FTUS43 KABR 202300 CCA
TAFATY
TAF COR
KATY 202342Z 2100/2124 13007KT P6SM SCT080
     FM210300 VRB05KT P6SM VCTS SCT080CB
     FM210500 VRB05KT P6SM SKC
     FM211500 33018G28KT P6SM SKC=

USA.gov is the U.S. government's official web portal to all federal, state and local government web resources and services.